This is the latest recevied weather packets stored in our database for station/object W7PLC. If no packets are shown the sender has not sent any weather packets the latest 10 day(s).
| Time | Temp. | Humidity | Pressure | Rain* | Wind** | Luminosity | Snow |
|---|---|---|---|---|---|---|---|
| 1778017199 | 16.67° C | 79% | 1015 hPa | 0 mm | - | 92 W/m² | - |
| 1778016897 | 16.67° C | 78% | 1014.8 hPa | 0 mm | - | 85 W/m² | - |
| 1778016593 | 16.67° C | 78% | 1014.6 hPa | 0 mm | - | 85 W/m² | - |
| 1778016289 | 16.67° C | 78% | 1014.7 hPa | 0 mm | - | 88 W/m² | - |
| 1778015986 | 16.67° C | 79% | 1014.7 hPa | 0 mm | - | 104 W/m² | - |
| 1778015684 | 16.11° C | 80% | 1014.9 hPa | 0 mm | - | 94 W/m² | - |
| 1778015380 | 16.67° C | 79% | 1014.8 hPa | 0 mm | - | 87 W/m² | - |
| 1778015077 | 16.11° C | 80% | 1014.9 hPa | 0 mm | - | 85 W/m² | - |
| 1778014774 | 16.11° C | 79% | 1015 hPa | 0 mm | - | 86 W/m² | - |
| 1778014472 | 16.11° C | 78% | 1014.8 hPa | 0 mm | - | 85 W/m² | - |
| 1778014168 | 16.11° C | 79% | 1014.9 hPa | 0 mm | - | 84 W/m² | - |
| 1778013867 | 16.11° C | 79% | 1014.9 hPa | 0 mm | - | 85 W/m² | - |
| 1778013564 | 16.11° C | 79% | 1015 hPa | 0 mm | - | 88 W/m² | - |
| 1778013260 | 16.11° C | 80% | 1014.8 hPa | 0 mm | - | 89 W/m² | - |
| 1778012956 | 16.67° C | 78% | 1015 hPa | 0 mm | - | 90 W/m² | - |
| 1778012652 | 16.11° C | 79% | 1014.9 hPa | 0 mm | - | 92 W/m² | - |
| 1778012349 | 16.11° C | 79% | 1015.1 hPa | 0 mm | - | 96 W/m² | - |
| 1778012046 | 16.11° C | 80% | 1014.9 hPa | 0 mm | - | 95 W/m² | - |
| 1778011745 | 15.56° C | 80% | 1014.7 hPa | 0 mm | - | 90 W/m² | - |
| 1778011441 | 16.11° C | 80% | 1014.7 hPa | 0 mm | - | 92 W/m² | - |
| 1778011137 | 16.11° C | 80% | 1015 hPa | 0 mm | - | 83 W/m² | - |
| 1778010834 | 16.11° C | 81% | 1014.9 hPa | 0 mm | - | 85 W/m² | - |
| 1778010531 | 15.56° C | 81% | 1014.9 hPa | 0 mm | - | 81 W/m² | - |
| 1778010229 | 15.56° C | 81% | 1015.2 hPa | 0 mm | - | 82 W/m² | - |
| 1778009929 | 15.56° C | 82% | 1015.1 hPa | 0 mm | - | 81 W/m² | - |
* Rain latest hour (hover to see other rain measurements)
** Current wind speed in m/s (hover to see current wind gust speed)